| time (UTC) | temp C | wind direction | speed KPH | gust KPH | rain 1hr cm | rain 24hr cm | rain mn cm | humidity % | barometer mb |
| 20260504000004 | 18 | 0 | 0.0 | 0.0 | 0.00 | 0.20 | 0.00 | 61 | 1015.6 |
| 20260503235403 | 19 | 122 | 0.0 | 1.6 | 0.00 | 0.20 | 0.00 | 57 | 1015.7 |
| 20260503234503 | 20 | 136 | 0.0 | 1.6 | 0.00 | 0.20 | 0.00 | 55 | 1015.8 |
| 20260503233629 | 21 | 201 | 0.0 | 1.6 | 0.00 | 0.20 | 0.00 | 50 | 1015.8 |
| 20260503232704 | 21 | 265 | 0.0 | 3.2 | 0.00 | 0.20 | 0.00 | 48 | 1015.8 |
| 20260503231804 | 21 | 275 | 1.6 | 4.8 | 0.00 | 0.20 | 0.00 | 48 | 1015.8 |
| 20260503230903 | 21 | 259 | 1.6 | 8.0 | 0.00 | 0.20 | 0.00 | 44 | 1016.0 |
| 20260503230026 | 22 | 284 | 0.0 | 8.0 | 0.00 | 0.20 | 0.00 | 47 | 1016.0 |
| 20260503225404 | 22 | 279 | 0.0 | 3.2 | 0.00 | 0.20 | 0.00 | 45 | 1016.0 |
| 20260503224503 | 21 | 266 | 3.2 | 8.0 | 0.00 | 0.20 | 0.00 | 44 | 1016.1 |
| 20260503223603 | 21 | 263 | 3.2 | 11.3 | 0.00 | 0.20 | 0.00 | 41 | 1016.1 |
| 20260503222703 | 21 | 284 | 4.8 | 11.3 | 0.00 | 0.20 | 0.00 | 43 | 1016.1 |
| 20260503221803 | 20 | 290 | 6.4 | 12.9 | 0.00 | 0.20 | 0.00 | 42 | 1016.1 |
| 20260503220920 | 21 | 269 | 4.8 | 11.3 | 0.00 | 0.20 | 0.00 | 44 | 1016.0 |
| 20260503220003 | 21 | 281 | 3.2 | 9.7 | 0.00 | 0.20 | 0.00 | 46 | 1016.0 |
| 20260503215404 | 21 | 290 | 4.8 | 11.3 | 0.00 | 0.20 | 0.00 | 47 | 1016.1 |
| 20260503214504 | 20 | 292 | 8.0 | 17.7 | 0.00 | 0.20 | 0.00 | 44 | 1016.1 |
| 20260503213603 | 21 | 284 | 4.8 | 12.9 | 0.00 | 0.20 | 0.00 | 45 | 1016.0 |
| 20260503212724 | 20 | 273 | 4.8 | 16.1 | 0.00 | 0.20 | 0.00 | 45 | 1016.1 |
| 20260503211803 | 20 | 272 | 4.8 | 16.1 | 0.00 | 0.20 | 0.00 | 47 | 1016.1 |
| 20260503210903 | 20 | 291 | 8.0 | 17.7 | 0.00 | 0.20 | 0.00 | 46 | 1016.2 |
| 20260503210005 | 20 | 295 | 4.8 | 12.9 | 0.00 | 0.20 | 0.00 | 48 | 1016.3 |
| 20260503205425 | 20 | 293 | 6.4 | 20.9 | 0.00 | 0.20 | 0.00 | 51 | 1016.2 |
| 20260503204503 | 20 | 282 | 8.0 | 20.9 | 0.00 | 0.20 | 0.00 | 47 | 1016.4 |
| 20260503203603 | 20 | 297 | 8.0 | 20.9 | 0.00 | 0.20 | 0.00 | 46 | 1016.5 |
| 20260503202724 | 20 | 292 | 6.4 | 20.9 | 0.00 | 0.20 | 0.00 | 47 | 1016.5 |
| 20260503201803 | 20 | 296 | 8.0 | 19.3 | 0.00 | 0.20 | 0.00 | 46 | 1016.7 |
| 20260503200925 | 20 | 286 | 9.7 | 20.9 | 0.00 | 0.20 | 0.00 | 50 | 1016.8 |
| 20260503200024 | 20 | 287 | 8.0 | 17.7 | 0.00 | 0.20 | 0.00 | 47 | 1017.0 |
| 20260503195425 | 20 | 278 | 4.8 | 17.7 | 0.00 | 0.20 | 0.00 | 46 | 1017.1 |
| 20260503194512 | 20 | 290 | 4.8 | 11.3 | 0.00 | 0.20 | 0.00 | 48 | 1017.3 |
| 20260503193626 | 20 | 229 | 3.2 | 16.1 | 0.00 | 0.20 | 0.00 | 50 | 1017.5 |
| 20260503192705 | 20 | 294 | 3.2 | 14.5 | 0.00 | 0.20 | 0.00 | 49 | 1017.7 |
| 20260503191901 | 20 | 279 | 4.8 | 12.9 | 0.00 | 0.20 | 0.00 | 49 | 1017.9 |
| 20260503190903 | 19 | 284 | 4.8 | 12.9 | 0.00 | 0.20 | 0.00 | 50 | 1018.1 |
| 20260503190004 | 20 | 149 | 4.8 | 11.3 | 0.00 | 0.20 | 0.00 | 49 | 1018.3 |
| 20260503185403 | 19 | 251 | 4.8 | 11.3 | 0.00 | 0.20 | 0.00 | 50 | 1018.3 |
| 20260503184503 | 19 | 268 | 4.8 | 12.9 | 0.00 | 0.20 | 0.00 | 51 | 1018.4 |
| 20260503183603 | 18 | 293 | 3.2 | 12.9 | 0.00 | 0.20 | 0.00 | 53 | 1018.5 |
| 20260503182704 | 18 | 274 | 3.2 | 16.1 | 0.00 | 0.20 | 0.00 | 51 | 1018.6 |
| 20260503181803 | 18 | 199 | 3.2 | 12.9 | 0.00 | 0.20 | 0.00 | 51 | 1018.8 |
| 20260503180005 | 18 | 278 | 3.2 | 16.1 | 0.00 | 0.20 | 0.00 | 50 | 1018.9 |
| 20260503175404 | 18 | 286 | 6.4 | 16.1 | 0.00 | 0.20 | 0.00 | 52 | 1018.9 |
| 20260503174505 | 18 | 211 | 4.8 | 14.5 | 0.00 | 0.20 | 0.00 | 48 | 1018.9 |
| 20260503173605 | 18 | 258 | 6.4 | 24.1 | 0.00 | 0.20 | 0.00 | 51 | 1019.0 |
| 20260503172706 | 18 | 270 | 3.2 | 11.3 | 0.00 | 0.20 | 0.00 | 51 | 1019.0 |
| 20260503171850 | 18 | 279 | 6.4 | 16.1 | 0.00 | 0.20 | 0.00 | 50 | 1019.2 |
| 20260503170905 | 18 | 110 | 1.6 | 6.4 | 0.00 | 0.20 | 0.00 | 52 | 1019.2 |
| 20260503150904 | 15 | 75 | 3.2 | 8.0 | 0.00 | 0.23 | 0.00 | 62 | 1020.3 |
| 20260503130904 | 10 | 316 | 1.6 | 12.9 | 0.00 | 0.25 | 0.00 | 89 | 1019.7 |
| 20260503080904 | 7 | 0 | 0.0 | 0.0 | 0.00 | 0.71 | 0.00 | 96 | 1016.6 |
| 20260503072725 | 8 | 297 | 0.0 | 3.2 | 0.00 | 0.76 | 0.00 | 97 | 1016.2 |
| 20260503071810 | 8 | 0 | 0.0 | 0.0 | 0.00 | 0.76 | 0.00 | 96 | 1016.1 |
| 20260503070905 | 7 | 0 | 0.0 | 0.0 | 0.00 | 0.76 | 0.00 | 96 | 1016.0 |
| 20260503054504 | 8 | 0 | 0.0 | 0.0 | 0.00 | 0.76 | 0.00 | 96 | 1016.1 |
| 20260503053605 | 8 | 0 | 0.0 | 0.0 | 0.00 | 0.76 | 0.00 | 96 | 1016.1 |
| 20260503052704 | 8 | 0 | 0.0 | 0.0 | 0.00 | 0.76 | 0.00 | 95 | 1016.1 |
| 20260503051826 | 8 | 0 | 0.0 | 0.0 | 0.00 | 0.76 | 0.00 | 95 | 1016.1 |
| 20260503050925 | 8 | 0 | 0.0 | 0.0 | 0.00 | 0.76 | 0.00 | 95 | 1016.0 |
| 20260503050025 | 8 | 0 | 0.0 | 0.0 | 0.00 | 0.76 | 0.00 | 95 | 1015.9 |
| 20260503045404 | 8 | 0 | 0.0 | 0.0 | 0.00 | 0.76 | 0.00 | 95 | 1015.8 |
| 20260503044504 | 8 | 0 | 0.0 | 0.0 | 0.00 | 0.76 | 0.00 | 95 | 1015.7 |
| 20260503043625 | 8 | 0 | 0.0 | 0.0 | 0.00 | 0.76 | 0.00 | 95 | 1015.6 |
| 20260503042704 | 9 | 0 | 0.0 | 0.0 | 0.00 | 0.76 | 0.00 | 94 | 1015.5 |
| 20260503041825 | 9 | 0 | 0.0 | 0.0 | 0.00 | 0.76 | 0.00 | 94 | 1015.5 |
| 20260503040904 | 10 | 0 | 0.0 | 0.0 | 0.00 | 0.76 | 0.00 | 94 | 1015.5 |
| 20260503040005 | 10 | 0 | 0.0 | 0.0 | 0.00 | 0.76 | 0.00 | 94 | 1015.4 |
| 20260503035404 | 10 | 0 | 0.0 | 0.0 | 0.00 | 0.76 | 0.76 | 94 | 1015.4 |
| 20260503034504 | 10 | 0 | 0.0 | 0.0 | 0.00 | 0.76 | 0.76 | 94 | 1015.3 |
| 20260503033613 | 10 | 0 | 0.0 | 0.0 | 0.00 | 0.76 | 0.76 | 94 | 1015.3 |
| 20260503032704 | 11 | 0 | 0.0 | 0.0 | 0.00 | 0.76 | 0.76 | 94 | 1015.2 |
| 20260503031826 | 11 | 289 | 1.6 | 4.8 | 0.00 | 0.76 | 0.76 | 94 | 1015.2 |
| 20260503030904 | 11 | 255 | 0.0 | 3.2 | 0.00 | 0.76 | 0.76 | 94 | 1015.1 |
| 20260503030030 | 11 | 249 | 0.0 | 3.2 | 0.00 | 0.76 | 0.76 | 94 | 1015.0 |
| 20260503025404 | 11 | 244 | 0.0 | 1.6 | 0.00 | 0.76 | 0.76 | 94 | 1015.0 |
| 20260503024525 | 11 | 281 | 1.6 | 3.2 | 0.00 | 0.76 | 0.76 | 94 | 1014.8 |
| 20260503023604 | 11 | 276 | 0.0 | 3.2 | 0.03 | 0.76 | 0.76 | 93 | 1014.6 |
| 20260503022705 | 11 | 129 | 0.0 | 4.8 | 0.05 | 0.76 | 0.76 | 93 | 1014.4 |
| 20260503021804 | 11 | 131 | 0.0 | 4.8 | 0.08 | 0.76 | 0.76 | 93 | 1014.2 |
| 20260503020906 | 11 | 121 | 1.6 | 4.8 | 0.15 | 0.76 | 0.76 | 93 | 1014.1 |
| 20260503020025 | 11 | 118 | 0.0 | 4.8 | 0.20 | 0.76 | 0.76 | 92 | 1014.3 |
| 20260503015425 | 11 | 128 | 1.6 | 8.0 | 0.20 | 0.76 | 0.76 | 92 | 1014.1 |
| 20260503014525 | 11 | 156 | 3.2 | 8.0 | 0.20 | 0.76 | 0.76 | 91 | 1013.8 |
| 20260503013604 | 12 | 138 | 1.6 | 6.4 | 0.18 | 0.74 | 0.74 | 91 | 1014.1 |
| 20260503012704 | 12 | 171 | 1.6 | 4.8 | 0.15 | 0.71 | 0.71 | 91 | 1014.1 |
| 20260503011805 | 12 | 284 | 3.2 | 11.3 | 0.13 | 0.69 | 0.69 | 91 | 1014.1 |
| 20260503010925 | 13 | 302 | 6.4 | 11.3 | 0.05 | 0.61 | 0.61 | 91 | 1013.9 |
| 20260503010004 | 13 | 284 | 1.6 | 11.3 | 0.00 | 0.56 | 0.56 | 90 | 1013.4 |
| 20260503005425 | 13 | 109 | 0.0 | 1.6 | 0.00 | 0.56 | 0.56 | 89 | 1013.4 |
| 20260503004504 | 13 | 109 | 0.0 | 1.6 | 0.00 | 0.56 | 0.56 | 88 | 1012.8 |
| 20260503003604 | 13 | 0 | 0.0 | 0.0 | 0.00 | 0.56 | 0.56 | 88 | 1012.7 |
| 20260503002725 | 13 | 122 | 0.0 | 1.6 | 0.00 | 0.56 | 0.56 | 88 | 1012.3 |
| 20260503001804 | 13 | 122 | 0.0 | 1.6 | 0.00 | 0.56 | 0.56 | 88 | 1012.3 |
| 20260503000904 | 13 | 120 | 0.0 | 1.6 | 0.00 | 0.56 | 0.56 | 87 | 1012.0 |